{"data":{"norad_id":57646,"intl_designator":"2023-122Q","name":"STARLINK-30265","alt_names":[],"object_type":"PAYLOAD","status":"ACTIVE","operator":null,"country":"US","launch_date":"2023-08-17","launch_site_code":"AFETR","launch_vehicle":null,"mission":null,"orbit_class":"UNKNOWN","rcs_meters":null,"size_class":null,"mass_kg":null,"dimensions":null,"purposes":["comms"],"wikipedia_slug":null,"has_3d_model":false,"image_url":null,"decayed_at":null,"tle_current":{"epoch":"2026-05-25T00:16:49.258272Z","epoch_age_seconds":74308,"freshness":"FRESH","line1":"1 57646U 23122Q   26145.01168123 -.00002412  00000+0 -78163-4 0  9997","line2":"2 57646  43.0035  21.1147 0001260 271.1308  88.9400 15.27576527153883","mean_motion":15.27576527,"eccentricity":0.000126,"inclination_deg":43.0035,"raan_deg":21.1147,"arg_perigee_deg":271.1308,"mean_anomaly_deg":88.94,"bstar":-7.8163e-5,"rev_number":15388,"period_min":94.266963032484,"perigee_km":482.19498471233,"apogee_km":483.92400622919,"semimajor_km":6861.1964954708,"source":"CELESTRAK","updated_at":"2026-05-25T13:38:18.365106Z"}}}